Home > Weather > Tyler > Past weeks

Flag for USA Weather for the Past 2 Weeks in Tyler, Texas, USA

Now
80 °F

Sunny.


Feels Like: 80 °F
Forecast: 62 / 79 °F
Wind: 12 mph from North

Location: Tyler Pounds Field

Current Time: May 1, 2016 at 4:52:27 PM

Latest Report: May 1, 2016 at 3:53 PM


Visibility: 10 mi

Pressure: 29.90 "Hg

Humidity: 42%

Dew Point: 55 °F

Location of TylerLocation

Historic Weather in Tyler — Graph

°F

Tyler Temperature Yesterday

Maximum temperature yesterday: 83 °F (at 1:53 PM)
Minimum temperature yesterday: 67 °F (at 6:53 AM)
Average temperature yesterday: 73 °F

High & Low Weather Summary for the Past Weeks

 TemperatureHumidityPressure
High86 °F (Apr 25, 4:53 PM)97% (Apr 30, 7:53 AM)30.15 "Hg (Apr 30, 7:53 AM)
Low56 °F (Apr 23, 4:53 AM)29% (Apr 27, 6:53 PM)29.54 "Hg (Apr 29, 6:53 PM)
Average72 °F71%29.88 "Hg
* Reported Apr 16 2:53 PM — May 1 2:53 PM, Tyler, Weather by CustomWeather, © 2016

Note: Actual official high and low records may vary slightly from our data, if they occured in-between our weather recording intervals... More about our weather records

Advertising

Tyler Weather History for the Previous 24 Hours

Scroll right to see more
 ConditionsComfort  
Time TempWeatherWind HumidityBarometerVisibility
2:53 PM
Sun, May 1
79 °FPassing clouds.13 mph45%29.93 "Hg10 mi
1:53 PM79 °FSunny.14 mph45%29.92 "Hg10 mi
12:53 PM77 °FSunny.13 mph48%29.93 "Hg10 mi
11:53 AM76 °FSunny.13 mph52%29.94 "Hg10 mi
10:53 AM74 °FSunny.12 mph60%29.94 "Hg10 mi
9:53 AM71 °FSunny.14 mph63%29.93 "Hg10 mi
8:53 AM67 °FSunny.14 mph71%29.91 "Hg10 mi
7:53 AM64 °FSunny.9 mph81%29.90 "Hg10 mi
6:53 AM62 °FClear.8 mph86%29.86 "Hg10 mi
5:53 AM63 °FClear.6 mph84%29.85 "Hg10 mi
4:53 AM64 °FClear.9 mph84%29.85 "Hg10 mi
3:53 AM64 °FClear.9 mph87%29.85 "Hg10 mi
2:53 AM65 °FClear.6 mph87%29.85 "Hg10 mi
1:53 AM66 °FClear.3 mph87%29.85 "Hg10 mi
12:53 AM68 °FPassing clouds.7 mph82%29.85 "Hg10 mi
11:53 PM
Sat, Apr 30
68 °FPassing clouds.7 mph84%29.84 "Hg10 mi
10:53 PM69 °FClear.3 mph84%29.83 "Hg10 mi
9:53 PM70 °FClear.3 mph81%29.81 "Hg10 mi
8:53 PM72 °FScattered clouds.6 mph78%29.78 "Hg10 mi
7:53 PM74 °FPartly sunny.7 mph74%29.75 "Hg10 mi
6:53 PM77 °FOvercast.9 mph66%29.73 "Hg10 mi
5:53 PM79 °FSunny.10 mph65%29.70 "Hg10 mi
4:53 PM80 °FSunny.13 mph64%29.70 "Hg10 mi
Weather by CustomWeather, © 2016

See weather overviewHow to use our weather pages